Date,TemperatureHighF,TemperatureAvgF,TemperatureLowF,DewpointHighF,DewpointAvgF,DewpointLowF,HumidityHigh,HumidityAvg,HumidityLow,PressureMaxIn,PressureMinIn,WindSpeedMaxMPH,WindSpeedAvgMPH,GustSpeedMaxMPH,PrecipitationSumIn
2014-1-1,54.1,48.7,45.8,49.4,45.7,42.8,100,90,77,30.38,30.15,6,0,6,0.18
2014-1-2,59.0,52.6,48.6,59.0,52.1,42.3,100,98,75,30.15,29.69,13,1,13,0.63
2014-1-3,48.8,36.6,31.5,42.0,21.1,14.2,78,54,37,30.48,29.81,17,1,17,0.00
2014-1-4,49.2,40.3,32.1,41.5,31.9,19.1,87,72,56,30.47,30.22,10,1,10,0.00
2014-1-5,68.6,54.5,44.5,63.8,51.8,41.0,97,90,80,30.22,29.89,5,0,5,0.01
2014-1-6,64.0,49.8,28.1,63.9,38.4,7.1,100,69,33,30.30,29.79,14,2,14,0.00
2014-1-7,32.5,26.4,18.0,14.2,5.8,2.3,57,42,30,30.56,30.30,9,1,9,0.00
2014-1-8,47.4,35.4,26.0,32.4,22.0,10.8,74,59,40,30.62,30.49,11,0,11,0.00
2014-1-9,61.8,48.9,36.9,53.1,42.2,29.4,91,78,53,30.50,30.35,11,1,11,0.00
2014-1-10,73.0,64.4,54.7,66.4,60.9,52.1,96,89,78,30.35,30.07,16,1,16,0.00
2014-1-11,69.4,65.4,59.5,69.1,64.6,55.7,100,98,86,30.07,29.73,16,2,16,0.40
2014-1-12,63.4,54.2,42.6,56.9,42.0,33.7,90,66,36,30.22,29.79,7,1,7,0.00
2014-1-13,65.0,51.1,38.9,51.5,44.7,37.3,100,81,50,30.22,29.93,8,0,8,0.00
2014-1-14,63.4,56.4,45.8,59.6,54.6,44.4,100,94,68,30.01,29.83,8,0,8,0.64
2014-1-15,60.7,50.3,40.9,52.0,42.3,35.4,100,77,40,30.02,29.87,7,0,7,0.00
2014-1-16,51.4,44.2,37.5,36.8,31.2,27.0,76,61,41,30.12,29.93,6,0,6,0.00
2014-1-17,59.3,47.6,33.4,50.5,38.3,28.1,85,71,50,30.14,29.93,12,1,12,0.02
2014-1-18,52.8,42.4,35.3,35.2,22.1,15.6,74,45,31,30.15,29.96,11,1,11,0.00
2014-1-19,61.0,47.1,35.6,39.8,33.4,26.0,81,60,40,30.12,29.98,12,1,12,0.00
2014-1-20,66.0,50.2,39.2,45.7,36.5,25.3,84,63,25,30.06,29.91,11,1,11,0.00
2014-1-21,61.2,51.8,43.5,53.2,40.0,24.2,86,66,35,29.92,29.55,14,1,14,0.00
2014-1-22,44.5,37.8,31.2,29.1,23.3,18.1,75,57,37,30.17,29.83,7,1,7,0.00
2014-1-23,43.2,36.5,30.1,26.6,16.6,10.0,69,45,29,30.37,30.17,6,0,6,0.00
2014-1-24,36.3,31.1,23.3,20.3,9.0,-0.3,66,41,23,30.59,30.36,11,1,11,0.00
2014-1-25,56.0,39.9,21.8,41.9,27.6,13.5,91,64,38,30.36,29.79,12,2,14,0.00
2014-1-26,56.5,46.7,35.0,41.5,34.6,28.1,89,65,35,30.04,29.94,8,0,8,0.00
2014-1-27,65.5,54.5,44.2,53.1,46.7,39.0,89,75,59,30.00,29.84,11,1,11,0.00
2014-1-28,55.4,39.7,31.2,53.0,35.0,21.3,97,84,48,30.20,29.97,11,1,11,0.30
2014-1-29,31.9,28.7,27.0,31.1,26.6,22.5,97,92,82,30.36,30.11,0,0,0,0.02
2014-1-30,33.2,29.7,26.7,28.8,24.0,20.0,86,79,73,30.36,30.20,5,0,5,0.00
2014-1-31,56.9,42.7,32.7,46.4,37.6,27.4,96,82,66,30.26,30.15,6,0,6,0.16
2014-2-1,51.4,48.2,43.3,51.4,47.6,42.2,100,98,89,30.19,30.09,7,0,7,0.32
2014-2-2,68.8,55.2,47.0,56.6,51.4,47.0,100,88,60,30.18,30.06,6,0,6,0.00
2014-2-3,69.3,63.7,56.0,65.3,62.5,56.0,100,96,86,30.11,29.99,12,1,12,0.00
2014-2-4,60.4,52.0,49.1,59.8,48.8,45.3,99,89,80,30.27,30.08,13,1,13,0.00
2014-2-5,71.1,60.0,49.2,66.3,56.3,40.8,100,89,57,30.08,29.86,11,1,11,0.25
2014-2-6,53.5,47.5,41.8,43.6,37.8,33.8,88,70,50,30.32,30.05,10,1,10,0.05
2014-2-7,52.5,45.1,38.5,41.2,38.4,35.7,92,78,59,30.34,30.24,11,1,11,0.00
2014-2-8,53.8,45.8,40.3,43.8,41.0,37.7,95,84,68,30.26,30.10,7,0,7,0.08
2014-2-9,61.8,48.8,36.3,46.1,41.1,35.5,100,77,49,30.20,30.03,10,0,10,0.00
2014-2-10,65.8,52.3,42.5,50.0,45.3,40.5,95,79,52,30.14,30.03,8,0,8,0.00
2014-2-11,50.1,40.6,34.3,45.1,37.7,33.1,96,90,72,30.30,30.11,11,1,11,0.09
2014-2-12,35.5,33.5,31.3,35.5,33.2,30.3,100,99,96,30.29,29.72,14,1,14,0.82
2014-2-13,42.5,36.8,33.5,38.4,35.0,32.9,100,93,80,29.86,29.60,12,2,12,0.03
2014-2-14,61.2,48.3,36.9,44.5,37.2,29.2,88,68,32,29.95,29.80,12,1,12,0.00
2014-2-15,57.8,51.1,42.6,49.1,39.9,28.3,95,68,36,30.10,29.65,16,2,16,0.04
2014-2-16,61.8,47.4,37.5,41.4,31.5,18.1,82,57,21,30.17,30.06,6,0,7,0.00
2014-2-17,58.4,47.7,37.6,46.4,42.3,36.0,96,83,57,30.30,30.16,16,1,16,0.00
2014-2-18,71.3,57.9,46.8,56.4,51.2,45.2,98,80,50,30.23,30.14,7,0,7,0.00
2014-2-19,75.6,63.8,56.7,57.0,53.5,44.8,97,72,35,30.14,30.01,12,1,12,0.00
2014-2-20,77.2,66.6,57.2,65.3,61.9,53.8,99,86,62,30.18,30.04,10,1,10,0.00
2014-2-21,69.8,65.3,56.0,67.7,62.9,54.0,98,92,85,30.05,29.87,12,1,12,0.18
2014-2-22,66.9,56.6,47.6,53.9,44.7,35.5,97,68,38,30.16,30.03,16,1,16,0.00
2014-2-23,69.3,57.4,46.1,56.0,51.0,44.0,96,81,54,30.11,29.95,6,0,6,0.00
2014-2-24,68.8,60.0,53.5,58.3,52.1,44.1,98,78,41,30.11,29.93,7,1,10,0.00
2014-2-25,75.8,62.3,52.0,57.1,52.6,47.2,95,73,37,30.08,29.88,10,1,12,0.00
2014-2-26,58.4,51.0,41.3,53.3,49.1,41.3,100,94,74,29.91,29.73,8,0,8,0.55
2014-2-27,58.0,46.1,38.9,45.3,40.8,35.7,100,84,52,29.98,29.83,8,0,8,0.00
2014-2-28,55.0,46.6,34.7,44.6,38.2,30.8,92,74,57,30.21,29.98,12,1,12,0.00
2014-3-1,55.9,50.0,46.1,48.7,45.4,41.8,93,84,72,30.31,30.19,7,0,7,0.04
2014-3-2,69.4,55.9,41.6,54.2,47.3,40.5,99,76,44,30.25,30.02,7,0,7,0.00
2014-3-3,69.8,58.8,38.3,62.0,53.7,36.2,95,84,67,30.12,29.85,14,1,14,0.06
2014-3-4,39.5,36.8,33.4,36.5,30.3,27.6,93,78,65,30.24,30.12,10,1,10,0.00
2014-3-5,43.2,40.3,37.2,43.2,38.1,30.0,100,92,73,30.20,30.11,7,0,7,0.28
2014-3-6,43.5,41.5,39.1,43.5,40.4,37.6,100,96,90,30.20,29.82,7,1,16,0.59
2014-3-7,44.6,43.0,41.2,44.6,42.8,41.2,100,99,95,30.04,29.77,8,1,8,0.07
2014-3-8,67.8,51.2,36.8,50.5,43.4,36.1,100,77,45,30.16,30.02,7,0,7,0.00
2014-3-9,76.0,60.8,49.2,52.5,48.0,45.1,88,66,35,30.12,29.98,8,0,8,0.00
2014-3-10,77.7,62.2,50.4,54.6,48.6,37.5,85,64,34,30.04,29.85,6,1,10,0.00
2014-3-11,78.3,63.8,50.5,57.6,52.7,48.3,94,69,42,29.91,29.74,10,1,10,0.00
2014-3-12,74.6,66.0,56.7,62.5,57.8,41.5,100,76,49,29.77,29.47,12,2,15,0.23
2014-3-13,57.6,49.2,40.6,41.4,26.7,18.5,71,43,24,30.25,29.67,11,1,11,0.01
2014-3-14,62.6,49.8,34.3,43.2,36.2,26.1,96,64,26,30.37,30.19,6,0,10,0.00
2014-3-15,68.1,58.5,48.3,52.5,44.9,32.6,89,64,28,30.19,30.02,7,0,7,0.00
2014-3-16,67.4,58.4,53.9,64.3,55.0,46.7,100,89,71,30.06,29.74,11,0,11,0.46
2014-3-17,59.2,51.3,42.6,59.2,51.3,42.6,100,100,99,29.86,29.68,8,0,8,0.45
2014-3-18,47.0,42.5,38.2,43.0,41.1,38.2,100,95,84,30.13,29.78,10,1,10,0.03
2014-3-19,57.6,48.0,43.8,49.5,45.0,42.3,97,90,72,30.19,30.04,6,0,6,0.00
2014-3-20,74.9,58.5,46.5,54.3,49.4,41.2,100,76,30,30.08,29.93,7,0,7,0.00
2014-3-21,68.6,57.0,44.5,51.2,41.7,29.5,93,62,25,30.18,30.03,13,1,13,0.00
2014-3-22,75.6,63.1,51.0,64.1,58.0,49.3,99,85,63,30.10,29.96,6,0,6,0.00
2014-3-23,76.7,65.4,53.9,62.7,55.8,45.1,100,75,44,30.04,29.83,10,0,10,0.00
2014-3-24,54.7,50.2,43.5,45.3,39.0,34.2,86,66,51,30.23,30.04,18,2,18,0.00
2014-3-25,61.2,51.1,44.6,52.8,42.3,22.1,100,75,35,30.04,29.72,11,1,11,0.53
2014-3-26,55.1,44.6,33.5,31.4,22.1,15.5,68,43,23,30.34,30.03,8,1,8,0.00
2014-3-27,62.0,50.3,36.6,49.4,40.0,30.8,95,70,38,30.46,30.29,17,1,17,0.00
2014-3-28,70.9,60.4,49.8,65.7,58.2,47.6,100,93,76,30.30,30.07,5,0,10,0.34
2014-3-29,74.4,66.0,62.0,67.9,63.8,57.1,100,93,72,30.08,29.69,10,1,10,1.74
2014-3-30,66.6,58.2,48.6,57.5,38.6,25.7,75,51,22,30.03,29.72,12,2,12,0.00
2014-3-31,74.0,56.7,40.9,47.3,39.0,27.3,84,56,20,30.14,30.03,8,0,8,0.00
2014-4-1,79.6,61.5,46.8,54.4,48.5,41.2,99,68,28,30.18,30.07,7,0,7,0.00
2014-4-2,82.8,67.7,54.8,57.0,51.8,44.7,94,60,28,30.17,30.07,7,0,7,0.01
2014-4-3,82.2,69.9,61.8,62.7,58.8,53.9,89,70,41,30.11,29.98,10,0,10,0.00
2014-4-4,80.7,71.2,61.8,65.2,62.1,59.3,95,75,55,30.00,29.87,10,1,10,0.00
2014-4-5,80.9,70.9,63.7,63.6,61.1,58.5,90,73,48,29.98,29.89,6,0,6,0.00
2014-4-6,66.4,61.8,58.1,61.7,55.8,51.6,91,81,69,30.07,29.94,13,1,13,0.02
2014-4-7,76.1,65.7,58.3,68.9,62.6,54.2,100,90,72,29.98,29.75,11,1,11,0.36
2014-4-8,71.3,66.2,62.0,66.9,61.4,51.6,100,86,58,29.76,29.59,12,1,12,0.25
2014-4-9,72.3,62.8,52.8,53.3,46.8,37.8,85,60,29,30.11,29.67,11,0,11,0.00
2014-4-10,75.8,63.0,49.2,53.8,46.7,36.9,95,62,26,30.27,30.11,13,0,13,0.00
2014-4-11,79.0,66.3,55.0,60.1,54.5,48.0,98,70,35,30.29,30.15,9,0,9,0.00
2014-4-12,79.6,68.4,58.3,63.1,59.2,53.6,97,76,41,30.22,30.13,7,0,8,0.00
2014-4-13,79.9,69.7,59.8,66.0,61.4,57.2,99,77,48,30.20,30.09,12,1,12,0.00
2014-4-14,77.7,71.4,66.6,70.2,66.7,62.6,94,85,71,30.10,29.84,10,0,10,0.02
2014-4-15,72.5,68.1,55.9,70.7,66.2,50.2,99,94,83,29.92,29.64,11,1,11,0.37
2014-4-16,55.6,55.2,55.0,50.0,49.7,49.3,82,82,81,29.94,29.92,8,3,8,0.00
2014-4-17,69.4,54.9,43.8,54.2,42.1,-99.9,85,67,48,30.45,-32.77,17,-27,17,0.00
2014-4-18,67.1,59.3,55.4,57.8,54.8,49.4,100,86,65,30.33,30.00,12,1,14,1.95
2014-4-19,61.0,58.6,54.2,61.0,58.3,52.2,100,99,94,30.03,29.90,13,1,13,0.52
2014-4-20,64.3,58.0,52.0,55.4,53.3,51.8,100,86,67,30.10,30.00,12,1,12,0.18
2014-4-21,75.3,65.2,54.7,59.2,53.1,47.0,88,66,48,30.09,29.94,11,0,11,0.00
2014-4-22,81.4,68.0,57.0,64.2,59.7,55.6,98,77,45,29.95,29.72,6,0,6,0.04
2014-4-23,82.8,71.2,61.8,63.9,59.4,48.9,97,71,34,29.91,29.75,6,0,6,0.00
2014-4-24,74.0,66.2,59.5,61.3,56.7,50.6,91,73,45,30.05,29.91,16,1,16,0.00
2014-4-25,81.1,71.7,62.4,67.6,64.4,60.7,99,79,53,29.97,29.77,12,0,12,0.00
2014-4-26,78.5,68.7,60.1,66.0,57.3,39.3,92,70,31,30.01,29.84,14,1,14,0.00
2014-4-27,84.1,70.9,58.4,67.0,62.2,57.5,99,77,43,30.03,29.92,8,0,8,0.00
2014-4-28,82.0,74.5,68.4,71.1,68.6,66.0,95,83,65,29.96,29.84,7,0,7,0.00
2014-4-29,80.5,75.6,71.5,73.4,71.6,69.3,96,88,74,29.98,29.83,10,1,10,0.00
2014-4-30,77.6,72.9,67.9,74.2,70.8,66.7,100,93,87,30.04,29.90,11,0,11,1.11
2014-5-1,78.5,72.1,68.8,69.1,67.2,64.9,97,85,66,29.97,29.87,6,0,6,0.00
2014-5-2,69.1,65.0,61.5,66.2,57.6,54.1,92,77,67,29.95,29.88,4,0,4,0.00
2014-5-3,76.3,67.5,61.2,59.3,55.7,51.3,88,67,43,29.98,29.88,5,0,5,0.00
2014-5-4,83.6,69.9,56.0,58.2,52.9,47.7,89,58,31,30.03,29.92,9,0,9,0.00
2014-5-5,91.2,77.7,66.0,65.8,58.4,52.1,75,54,27,29.98,29.85,9,0,9,0.00
2014-5-6,89.7,78.1,68.1,66.6,62.2,56.3,84,61,34,29.97,29.87,7,0,7,0.00
2014-5-7,89.3,77.5,66.0,67.0,62.6,54.9,92,63,34,30.12,29.97,7,0,7,0.00
2014-5-8,87.6,77.1,69.8,72.0,68.7,63.4,97,77,46,30.21,30.11,4,0,6,0.00
2014-5-9,84.3,76.2,69.6,72.2,69.7,58.4,99,82,43,30.19,30.09,9,0,9,0.00
2014-5-10,83.2,77.3,73.0,72.4,70.4,66.5,95,80,58,30.14,30.04,12,1,12,0.00
2014-5-11,86.3,77.4,72.8,73.8,71.6,68.0,96,83,57,30.12,30.05,6,0,6,0.04
2014-5-12,85.7,77.7,70.8,73.2,70.8,66.0,98,81,57,30.18,30.09,9,0,9,0.00
2014-5-13,85.7,77.2,68.8,71.8,69.3,66.1,97,78,56,30.16,30.09,10,0,10,0.00
2014-5-14,83.2,76.2,67.4,72.5,68.8,65.6,98,79,60,30.14,30.03,12,1,12,0.00
2014-5-15,78.1,74.8,70.8,74.8,72.4,68.8,100,93,81,30.05,29.83,17,1,17,1.04
2014-5-16,75.3,70.3,61.8,70.8,53.5,45.7,100,58,37,30.07,29.86,8,1,8,0.00
2014-5-17,75.6,66.1,53.2,56.0,49.2,42.4,88,57,33,30.20,30.07,5,0,7,0.00
2014-5-18,75.3,66.9,57.5,60.5,57.4,54.4,93,73,53,30.20,30.13,5,0,5,0.00
2014-5-19,74.7,66.7,59.3,59.5,54.8,47.8,93,68,47,30.25,30.17,16,1,16,0.01
2014-5-20,78.1,67.7,55.6,61.5,54.8,50.0,97,66,40,30.29,30.16,12,0,12,0.00
2014-5-21,85.3,73.6,62.6,69.6,63.7,56.6,88,72,50,30.17,30.00,7,0,7,0.00
2014-5-22,91.6,80.9,71.1,68.1,65.4,60.7,89,62,36,30.02,29.88,6,0,6,0.00
2014-5-23,94.3,82.0,70.9,73.6,68.9,65.3,84,66,41,29.97,29.89,12,0,12,0.00
2014-5-24,85.1,75.6,69.8,69.2,64.0,57.8,92,69,43,30.07,29.93,13,1,13,0.00
2014-5-25,81.1,74.5,69.1,67.4,65.0,60.2,91,73,54,30.17,30.06,12,1,12,0.00
2014-5-26,84.7,77.1,71.5,69.4,67.3,63.7,89,73,53,30.21,30.11,12,0,12,0.00
2014-5-27,84.5,77.0,70.1,74.1,70.6,68.0,95,81,69,30.15,30.00,4,0,6,0.00
2014-5-28,88.2,79.5,73.0,75.7,71.8,66.9,95,79,56,30.05,29.94,5,0,5,0.00
2014-5-29,91.4,79.7,71.6,74.9,70.5,66.1,93,75,47,30.05,29.95,8,0,8,0.00
2014-5-30,84.0,75.4,71.8,75.3,72.1,68.5,100,90,67,30.06,29.98,8,0,8,1.07
2014-5-31,78.1,73.4,70.8,76.3,71.8,65.9,100,95,79,30.11,30.02,13,0,13,1.69
2014-6-1,79.0,74.5,69.3,67.5,60.1,50.1,83,62,40,30.24,30.10,16,2,16,0.01
2014-6-2,81.6,72.8,64.7,67.3,64.5,61.4,92,76,54,30.22,30.12,13,1,13,0.00
2014-6-3,83.0,74.9,66.9,68.8,66.3,60.7,96,76,52,30.12,29.96,10,0,10,0.00
2014-6-4,87.6,78.1,71.1,72.5,68.7,64.7,87,74,56,29.97,29.84,8,0,8,0.00
2014-6-5,88.2,80.5,75.3,75.7,71.7,67.9,86,75,64,29.89,29.76,7,1,7,0.00
2014-6-6,84.1,77.2,73.3,76.4,72.7,69.2,94,86,73,29.91,29.80,6,0,6,0.14
2014-6-7,83.2,76.2,70.1,74.6,71.7,68.4,99,87,72,29.96,29.84,16,1,16,0.01
2014-6-8,83.4,75.8,70.6,74.9,71.4,68.3,99,87,65,29.97,29.87,4,0,10,0.57
2014-6-9,91.0,81.5,74.7,77.3,75.1,71.9,99,83,57,29.93,29.82,1,0,3,0.00
2014-6-10,92.9,83.5,77.2,77.2,75.1,68.6,92,77,47,29.95,29.89,1,0,9,0.00
2014-6-11,89.0,81.0,73.5,76.7,72.5,67.1,92,76,56,29.95,29.84,2,0,7,0.00
2014-6-12,86.3,78.9,73.2,74.4,72.6,68.5,97,82,59,29.92,29.81,2,0,5,0.08
2014-6-13,87.6,80.1,74.2,75.8,71.9,67.2,92,77,52,29.88,29.81,2,0,5,0.00
2014-6-14,86.7,78.6,74.6,77.0,72.6,66.2,93,82,54,30.01,29.89,6,0,6,0.05
2014-6-15,91.8,80.9,73.3,76.0,73.7,69.3,97,80,51,30.11,29.98,10,0,10,0.00
2014-6-16,88.8,80.7,74.6,76.2,73.6,71.3,97,80,61,30.15,30.08,12,1,12,0.00
2014-6-17,90.1,80.0,71.5,75.6,71.0,63.2,98,76,48,30.17,30.09,8,0,8,0.00
2014-6-18,89.3,79.9,71.1,74.6,71.6,69.3,97,78,53,30.14,30.07,7,0,7,0.00
2014-6-19,90.5,82.4,74.4,76.0,72.9,68.5,96,74,51,30.12,30.01,10,0,10,0.00
2014-6-20,92.3,82.3,75.3,79.1,73.9,70.3,92,76,54,30.03,29.90,10,0,10,0.00
2014-6-21,91.6,82.8,77.6,78.6,75.7,70.6,96,80,61,29.94,29.75,12,0,12,0.18
2014-6-22,91.0,80.2,74.4,77.6,74.7,69.9,97,85,54,29.89,29.76,12,0,12,0.09
2014-6-23,86.1,77.5,74.6,76.7,73.9,71.0,98,89,66,30.05,29.87,10,0,10,0.11
2014-6-24,86.7,80.2,74.2,76.0,74.5,71.4,100,84,65,30.07,29.98,11,0,11,0.01
2014-6-25,90.7,81.1,74.0,77.5,73.6,70.1,89,79,55,30.04,29.92,8,0,8,0.00
2014-6-26,92.5,84.5,77.7,77.7,74.4,66.7,92,73,45,29.99,29.87,3,0,7,0.00
2014-6-27,89.7,81.3,74.4,77.5,73.0,70.1,98,77,55,30.01,29.94,7,0,7,0.78
2014-6-28,87.2,77.6,73.9,76.7,74.6,72.3,100,91,65,30.11,29.98,13,0,13,0.03
2014-6-29,87.4,79.0,74.0,76.4,73.3,68.8,96,83,63,30.13,30.06,13,0,13,0.01
2014-6-30,89.0,80.6,73.0,73.4,70.9,64.3,96,74,49,30.08,29.95,11,1,11,0.00
2014-7-1,91.6,81.9,73.0,76.1,71.4,64.1,95,73,47,29.97,29.89,8,0,8,0.00
2014-7-2,89.5,83.3,76.3,77.1,74.9,71.8,96,77,58,29.96,29.91,13,1,13,0.00
2014-7-3,84.3,79.4,74.0,76.2,73.5,70.4,97,83,68,29.91,29.76,11,0,11,0.11
2014-7-4,90.7,82.7,74.6,75.2,72.1,64.9,93,72,43,30.06,29.90,5,0,5,0.00
2014-7-5,82.8,78.8,73.9,74.1,71.4,67.3,88,78,68,30.15,30.05,16,1,16,0.00
2014-7-6,80.5,78.0,74.0,75.2,72.8,70.9,91,84,76,30.12,30.02,10,1,10,0.02
2014-7-7,88.4,79.6,70.6,76.0,73.1,69.1,98,82,62,30.06,29.97,11,0,11,0.00
2014-7-8,91.6,84.1,78.3,77.8,75.4,71.5,92,76,56,30.06,29.96,9,0,9,0.00
2014-7-9,92.5,84.0,78.3,77.5,75.2,72.3,87,76,56,30.03,29.96,11,0,11,0.00
2014-7-10,89.7,83.5,77.9,77.3,75.1,70.2,89,76,60,30.06,29.98,9,0,9,0.00
2014-7-11,85.7,78.8,74.4,76.8,73.4,70.2,99,84,69,30.15,30.04,7,0,7,0.31
2014-7-12,83.6,77.8,73.9,77.6,74.6,72.4,100,90,70,30.17,30.09,9,0,9,0.01
2014-7-13,83.6,76.9,73.7,76.3,73.7,72.2,97,90,72,30.14,30.01,7,0,7,0.62
2014-7-14,90.5,82.0,75.3,79.2,76.4,73.1,97,84,65,30.04,29.90,8,0,8,0.01
2014-7-15,89.9,81.6,73.9,79.1,75.3,71.2,99,82,65,29.93,29.78,12,0,12,0.13
2014-7-16,86.3,78.0,74.2,77.4,74.0,72.3,99,89,65,29.85,29.78,10,0,10,0.44
2014-7-17,85.3,78.6,72.3,75.1,72.2,69.4,100,82,62,30.02,29.85,6,1,7,0.01
2014-7-18,88.4,80.9,73.7,72.8,69.3,61.7,92,70,44,30.09,30.01,13,1,13,0.00
2014-7-19,84.3,79.0,73.7,73.7,71.7,67.7,87,79,68,30.08,30.02,7,0,7,0.00
2014-7-20,85.3,78.2,73.9,78.0,74.9,72.6,98,90,72,30.05,29.98,7,0,7,1.07
2014-7-21,83.2,77.9,73.3,76.8,75.0,72.4,100,91,74,30.06,29.99,7,0,7,0.21
2014-7-22,86.3,79.4,75.8,77.9,75.4,74.0,98,88,70,30.08,29.99,10,0,10,0.54
2014-7-23,91.4,81.2,74.4,78.2,75.1,72.0,98,83,61,30.05,29.94,12,0,12,0.00
2014-7-24,91.2,84.3,78.8,79.5,77.3,73.8,95,80,58,29.95,29.84,6,0,6,0.00
2014-7-25,91.4,80.0,73.5,79.8,75.1,72.3,100,86,60,30.00,29.90,7,0,7,1.19
2014-7-26,88.8,80.2,72.3,79.7,76.2,72.3,100,89,66,30.00,29.93,7,0,7,0.00
2014-7-27,92.1,85.4,79.4,80.9,77.6,72.6,97,79,55,29.97,29.86,6,0,6,0.00
2014-7-28,92.9,85.9,81.1,82.6,77.5,74.2,91,77,63,29.86,29.75,6,0,6,0.02
2014-7-29,88.8,81.1,73.7,75.6,69.1,64.6,84,68,48,29.92,29.79,8,0,8,0.00
2014-7-30,86.1,79.5,73.0,75.1,71.5,68.4,96,77,58,29.99,29.90,13,1,13,0.00
2014-7-31,84.3,78.0,72.7,76.3,74.1,71.2,100,88,72,30.01,29.95,16,1,16,2.93
2014-8-1,82.4,77.6,73.7,79.6,75.2,73.0,100,93,79,30.00,29.93,11,0,11,0.01
2014-8-2,77.9,75.8,74.2,77.0,74.8,73.0,100,97,88,30.03,29.94,6,0,6,0.33
2014-8-3,79.0,75.6,73.3,75.5,74.2,72.6,100,96,82,30.05,29.96,12,0,12,0.72
2014-8-4,80.3,76.2,72.8,76.0,73.5,71.8,99,92,77,30.01,29.94,10,0,10,0.02
2014-8-5,88.4,80.1,73.3,77.4,74.4,70.8,97,84,59,29.99,29.91,7,0,7,0.04
2014-8-6,91.0,82.8,75.1,76.7,72.4,64.7,98,74,44,29.98,29.89,5,0,5,0.01
2014-8-7,92.5,85.4,76.5,78.8,74.6,71.3,95,72,52,29.94,29.86,3,0,3,0.00
2014-8-8,88.0,81.8,76.0,77.7,75.7,72.6,93,82,64,30.04,29.92,16,1,16,0.00
2014-8-9,91.4,80.3,73.9,79.7,76.2,71.6,100,88,63,30.02,29.94,5,0,9,3.42
2014-8-10,83.4,77.2,75.1,78.1,76.2,74.9,100,97,79,30.00,29.93,6,0,6,0.49
2014-8-11,86.3,79.2,74.7,79.3,76.6,74.7,100,92,72,29.97,29.87,7,0,7,0.04
2014-8-12,89.0,81.1,76.3,81.4,76.9,74.0,100,88,67,29.88,29.79,2,0,5,0.10
2014-8-13,89.7,82.1,76.1,79.3,75.7,72.6,97,82,59,29.90,29.81,5,0,5,0.00
2014-8-14,86.5,79.5,72.5,76.1,68.9,65.0,89,71,55,30.00,29.90,12,1,12,0.00
2014-8-15,87.6,79.6,72.7,74.5,71.7,68.1,96,78,54,30.02,29.92,11,1,11,0.00
2014-8-16,90.7,81.4,76.1,79.7,75.8,71.5,95,84,55,29.99,29.93,10,0,10,0.07
2014-8-17,92.1,83.8,76.7,77.3,73.7,67.3,96,74,46,30.00,29.92,6,0,6,0.01
2014-8-18,91.6,83.9,74.7,79.7,76.0,72.1,93,78,58,29.95,29.80,8,0,8,0.16
2014-8-19,89.9,80.2,74.6,76.7,73.7,70.0,96,81,60,29.89,29.80,11,1,11,0.00
2014-8-20,91.2,83.1,74.9,79.5,75.0,72.0,92,78,55,30.00,29.86,4,0,4,0.00
2014-8-21,93.2,84.6,76.1,80.4,75.3,71.9,90,75,54,30.04,29.96,3,0,3,0.00
2014-8-22,96.3,86.8,79.6,80.2,78.0,70.0,96,77,44,30.01,29.89,6,0,6,0.00
2014-8-23,96.6,87.4,80.3,80.0,76.4,70.2,89,72,45,29.91,29.78,10,0,10,0.00
2014-8-24,85.9,80.8,76.5,77.3,72.9,66.7,92,78,62,29.95,29.81,13,0,13,0.00
2014-8-25,84.3,76.3,67.9,71.2,66.2,61.6,83,71,56,29.98,29.93,11,0,11,0.00
2014-8-26,86.5,78.3,69.8,71.2,68.0,64.0,85,72,49,30.01,29.96,11,0,11,0.00
2014-8-27,86.5,77.8,66.8,70.6,66.1,62.2,92,69,47,30.00,29.92,10,0,10,0.00
2014-8-28,89.5,78.0,67.3,70.6,68.0,61.3,94,74,42,30.02,29.94,8,0,8,0.00
2014-8-29,88.8,79.6,70.8,76.5,73.6,69.1,99,83,64,30.09,29.98,12,0,12,0.00
2014-8-30,89.0,81.5,74.7,78.6,75.4,73.1,100,82,62,30.15,30.06,12,1,12,0.00
2014-8-31,91.6,83.1,76.5,79.0,76.3,74.7,98,81,61,30.12,30.02,10,0,10,0.00
2014-9-1,92.3,83.6,76.8,78.2,76.6,73.8,96,81,58,30.09,30.01,10,0,10,0.00
2014-9-2,92.5,85.0,78.5,79.0,76.4,72.0,95,77,53,30.06,29.95,8,0,11,0.00
2014-9-3,90.1,82.2,74.9,76.9,74.8,72.1,97,80,58,30.07,29.97,7,0,8,0.02
2014-9-4,89.9,81.9,74.9,76.6,74.6,72.1,96,80,58,30.12,30.04,11,1,12,0.02
2014-9-5,86.5,80.0,76.1,77.0,74.8,72.9,96,85,68,30.13,30.02,11,1,12,0.16
2014-9-6,80.3,77.0,73.5,78.8,75.1,71.9,100,94,83,30.03,29.90,5,0,6,1.26
2014-9-7,84.9,78.3,73.5,78.3,75.0,73.5,100,90,71,29.97,29.89,10,0,10,1.46
2014-9-8,79.8,76.0,73.7,77.6,75.1,73.5,100,97,85,30.03,29.93,6,0,6,1.06
2014-9-9,79.8,75.3,71.5,74.0,72.1,70.4,100,90,77,30.07,29.99,5,0,5,0.01
2014-9-10,83.2,78.1,72.3,74.3,72.2,69.5,93,83,70,30.07,29.99,6,0,7,0.00
2014-9-11,87.0,80.2,73.9,76.8,74.4,72.4,96,83,66,30.03,29.93,5,0,6,0.00
2014-9-12,90.3,81.7,76.7,76.4,74.6,70.3,95,80,58,30.01,29.93,7,0,8,0.01
2014-9-13,88.2,81.7,76.7,77.9,75.7,73.5,96,83,66,30.07,29.97,9,0,9,0.00
2014-9-14,82.6,77.5,73.0,77.0,74.3,71.2,98,90,74,30.15,30.03,9,0,11,0.09
2014-9-15,84.9,75.7,71.8,76.8,73.0,70.3,100,92,66,30.15,30.06,7,0,8,2.11
2014-9-16,81.8,75.5,72.7,78.3,74.5,71.6,100,97,77,30.07,29.89,10,0,10,1.55
2014-9-17,81.8,75.5,70.1,75.1,71.6,68.9,100,89,68,29.92,29.82,12,0,12,0.01
2014-9-18,83.8,76.2,70.1,73.4,70.8,68.6,97,84,64,29.95,29.84,8,0,8,0.00
2014-9-19,81.4,73.9,68.4,73.5,69.9,66.1,96,88,67,30.07,29.94,14,1,16,0.17
2014-9-20,72.3,70.8,68.1,71.0,67.9,64.6,99,91,78,30.07,29.89,8,0,10,0.11
2014-9-21,85.5,75.3,65.0,71.1,65.9,62.6,92,74,51,29.95,29.84,4,0,4,0.00
2014-9-22,86.1,75.2,67.4,71.2,67.7,63.3,98,79,57,30.08,29.90,6,0,7,0.57
2014-9-23,68.8,65.0,59.9,68.8,64.8,59.5,100,99,97,30.16,30.01,10,0,10,0.38
2014-9-24,66.1,62.7,58.9,63.8,61.2,58.3,100,95,88,30.17,30.10,7,0,8,0.10
2014-9-25,76.3,70.1,64.8,72.0,67.9,63.6,98,93,85,30.15,30.05,5,0,6,0.01
2014-9-26,73.9,70.1,66.6,69.6,67.3,65.4,96,91,82,30.10,30.03,8,0,8,0.02
2014-9-27,78.1,71.6,66.8,71.8,67.8,63.9,93,88,74,30.09,30.03,7,0,7,0.02
2014-9-28,76.7,73.2,70.4,74.1,71.0,68.2,99,93,86,30.08,29.98,6,0,7,1.45
2014-9-29,72.8,69.9,65.0,72.8,69.9,65.0,100,100,99,30.00,29.88,5,0,6,0.88
2014-9-30,78.3,70.1,63.9,67.1,65.3,63.7,100,86,63,29.89,29.80,6,0,7,0.00
2014-10-1,82.8,71.7,63.1,69.4,65.6,61.9,99,82,61,30.01,29.86,7,0,10,0.01
2014-10-2,84.0,73.1,64.0,71.3,66.9,62.8,100,82,59,30.09,30.00,7,0,8,0.00
2014-10-3,82.6,74.3,66.3,74.0,69.7,64.9,100,86,69,30.04,29.83,7,0,10,0.05
2014-10-4,75.8,70.7,57.8,71.5,55.6,37.7,94,63,27,29.90,29.72,6,1,7,0.01
2014-10-5,68.3,58.8,47.6,52.2,44.8,33.2,93,63,31,30.04,29.90,6,0,6,0.00
2014-10-6,76.3,63.3,51.7,58.4,51.9,39.9,97,71,31,30.12,30.03,6,0,7,0.00
2014-10-7,81.1,70.0,60.4,68.5,63.2,58.2,97,81,48,30.12,30.02,7,0,7,0.00
2014-10-8,85.1,75.3,68.1,72.8,69.4,66.6,97,83,59,30.10,29.98,5,0,5,0.00
2014-10-9,81.4,73.7,66.8,71.4,63.6,55.1,94,73,44,30.12,30.02,13,1,13,0.00
2014-10-10,85.1,74.0,63.9,70.7,66.3,61.7,98,79,58,30.10,30.01,8,0,8,0.00
2014-10-11,86.1,75.6,66.6,73.9,69.7,65.1,99,83,58,30.04,29.94,5,0,5,0.00
2014-10-12,85.5,76.2,70.6,72.5,71.2,68.9,97,85,59,30.13,29.98,12,1,12,0.00
2014-10-13,84.9,78.3,72.7,75.4,73.4,71.2,97,86,68,30.16,30.06,10,1,10,0.00
2014-10-14,84.7,77.9,71.5,74.4,71.9,69.5,98,83,65,30.06,29.89,13,1,13,0.18
2014-10-15,75.3,69.1,62.0,75.0,64.1,56.4,100,85,56,29.91,29.82,7,0,7,0.99
2014-10-16,73.2,64.7,57.6,58.4,54.8,49.9,90,72,45,29.90,29.80,8,0,8,0.00
2014-10-17,75.1,63.7,53.1,60.0,55.4,50.4,94,76,52,29.97,29.85,5,0,5,0.00
2014-10-18,81.4,70.3,61.2,63.3,58.9,54.9,89,69,45,29.89,29.75,7,0,7,0.00
2014-10-19,68.8,63.0,54.5,57.0,50.7,46.8,89,65,49,30.11,29.86,10,0,10,0.00
2014-10-20,75.4,64.5,53.5,62.3,56.8,51.2,93,78,55,30.13,29.96,10,0,10,0.00
2014-10-21,77.2,69.0,62.4,63.7,60.0,55.0,95,75,48,29.97,29.83,5,0,5,0.00
2014-10-22,66.9,60.9,52.6,60.4,47.0,43.1,88,61,43,30.04,29.89,10,0,10,0.00
2014-10-23,67.6,57.7,46.5,51.8,47.6,43.0,92,71,50,30.08,29.96,5,0,5,0.00
2014-10-24,71.5,59.5,49.1,54.4,50.3,46.4,94,74,41,30.07,29.94,6,0,6,0.00
2014-10-25,72.5,61.2,50.1,55.2,51.1,45.3,98,72,40,30.02,29.91,7,0,7,0.00
2014-10-26,81.6,65.9,53.2,64.9,57.0,50.6,92,76,43,29.95,29.86,3,0,3,0.00
2014-10-27,80.9,68.5,56.7,68.3,61.1,54.9,100,80,47,30.09,29.95,9,0,9,0.00
2014-10-28,81.6,71.0,61.8,71.2,63.9,59.0,100,81,47,30.15,30.07,5,0,5,0.00
2014-10-29,79.8,71.4,65.5,68.1,66.0,62.5,99,84,56,30.09,29.93,5,0,5,0.00
2014-10-30,70.8,65.7,58.9,67.1,59.8,53.9,95,82,63,29.97,29.89,10,0,10,0.00
2014-10-31,68.8,61.1,55.0,57.3,51.2,43.1,93,72,41,29.90,29.76,11,0,11,0.02
2014-11-1,55.7,46.6,40.1,52.7,42.6,32.9,96,87,66,30.05,29.70,11,1,11,0.13
2014-11-2,54.5,45.6,37.8,39.9,35.7,30.7,89,70,44,30.34,30.05,8,0,8,0.01
2014-11-3,61.2,48.3,36.9,40.8,34.8,25.5,90,64,28,30.47,30.34,8,0,8,0.00
2014-11-4,69.8,54.4,39.5,57.1,47.6,37.5,96,80,51,30.43,30.27,4,0,4,0.00
2014-11-5,75.4,64.2,53.6,64.6,58.1,52.2,100,82,58,30.30,30.17,4,0,4,0.00
2014-11-6,76.5,67.6,60.1,66.6,62.0,57.8,99,83,65,30.17,29.83,8,0,8,0.00
2014-11-7,64.0,55.9,46.8,58.6,42.5,37.5,89,62,41,30.03,29.84,6,0,6,0.00
2014-11-8,66.1,56.1,43.9,55.4,49.8,42.0,96,81,60,30.05,29.91,8,0,8,0.00
2014-11-9,64.7,57.9,52.2,57.9,53.6,49.9,98,86,67,30.00,29.84,11,0,11,0.17
2014-11-10,61.2,56.5,50.8,51.5,49.1,46.6,93,77,62,30.07,29.92,6,0,6,0.00
2014-11-11,74.4,64.7,58.0,65.0,58.7,49.9,94,81,70,29.92,29.83,3,0,8,0.00
2014-11-12,74.4,63.7,53.2,60.1,55.6,51.3,95,77,48,29.99,29.90,5,0,5,0.00
2014-11-13,71.6,64.3,56.7,62.1,58.3,46.3,97,82,67,30.02,29.91,3,0,4,0.00
2014-11-14,57.6,48.6,40.9,46.3,40.0,32.8,80,72,63,30.27,29.97,8,0,10,0.00
2014-11-15,51.9,43.1,33.4,35.7,28.9,23.5,75,58,37,30.42,30.27,10,0,10,0.00
2014-11-16,55.0,50.0,45.1,54.7,46.4,31.6,100,88,60,30.32,30.06,8,0,8,0.32
2014-11-17,73.7,62.7,48.0,70.3,60.4,40.4,100,92,74,30.06,29.72,11,1,11,0.03
2014-11-18,47.9,40.0,30.1,40.1,26.6,17.9,77,60,32,30.37,29.92,7,0,7,0.01
2014-11-19,50.7,37.5,26.3,33.5,25.7,14.8,89,65,28,30.45,30.32,6,0,6,0.00
2014-11-20,60.9,46.6,31.0,43.8,33.9,25.5,92,65,33,30.32,30.15,8,0,8,0.00
2014-11-21,63.2,51.9,40.5,44.7,40.3,33.3,92,67,34,30.46,30.24,12,0,12,0.00
2014-11-22,61.6,52.7,39.6,55.9,45.2,33.5,94,76,59,30.50,30.25,11,1,11,0.00
2014-11-23,70.4,62.4,57.0,70.4,62.2,55.0,100,99,93,30.25,29.76,13,1,13,1.66
2014-11-24,72.0,68.0,64.5,70.1,66.8,63.4,100,96,85,30.00,29.80,6,0,6,0.14
2014-11-25,65.6,62.8,61.5,65.6,62.7,61.5,100,100,98,30.07,29.84,7,0,7,1.21
2014-11-26,61.8,53.9,47.4,61.8,52.8,43.3,100,96,81,30.14,29.76,7,0,7,0.52
2014-11-27,55.7,48.2,41.5,43.3,36.8,31.3,89,66,41,30.29,30.09,11,1,11,0.00
2014-11-28,50.4,41.4,35.6,35.1,30.1,23.9,88,66,40,30.40,30.29,11,0,11,0.00
2014-11-29,57.8,45.1,34.3,43.6,37.2,31.1,97,77,44,30.38,30.29,6,0,6,0.00
2014-11-30,70.8,54.0,41.1,56.8,47.9,39.7,100,82,47,30.39,30.29,7,0,7,0.00
2014-12-1,73.3,58.9,48.3,59.7,53.3,47.2,100,83,57,30.43,30.30,0,0,0,0.00
2014-12-2,65.2,60.4,56.3,64.0,58.3,54.6,97,93,88,30.34,30.26,7,0,7,0.07
2014-12-3,68.6,59.8,56.0,63.6,58.3,54.9,100,95,81,30.29,30.19,3,0,3,0.00
2014-12-4,65.3,58.6,54.1,62.1,55.8,53.0,100,91,76,30.34,30.23,8,0,8,0.01
2014-12-5,63.7,56.8,50.5,56.1,53.2,48.6,97,88,73,30.42,30.28,7,0,7,0.00
2014-12-6,71.3,61.1,52.9,65.0,57.7,50.3,100,89,75,30.28,30.03,3,0,3,0.05
2014-12-7,62.9,53.8,48.0,62.9,47.5,38.6,100,79,66,30.31,30.03,11,1,13,0.01
2014-12-8,48.0,44.7,43.1,44.0,40.1,34.1,98,85,68,30.31,30.11,9,1,9,0.16
2014-12-9,54.8,46.7,41.9,44.0,41.2,39.0,94,82,59,30.11,29.93,7,0,7,0.00
2014-12-10,57.0,46.6,38.5,40.9,36.2,33.3,86,69,42,30.10,29.98,8,0,8,0.00
2014-12-11,56.9,43.8,34.1,38.4,35.4,31.7,93,74,47,30.18,30.04,5,0,5,0.00
2014-12-12,61.3,44.4,31.8,37.8,32.6,25.1,96,68,29,30.29,30.16,3,0,6,0.00
2014-12-13,65.5,47.5,33.2,40.5,33.5,25.3,89,64,26,30.19,30.05,3,0,5,0.00
2014-12-14,64.2,48.2,37.2,44.8,38.4,31.2,91,72,30,30.08,29.98,6,0,6,0.00
2014-12-15,66.4,50.9,38.8,52.9,44.8,37.2,99,81,49,30.11,30.03,10,0,10,0.00
2014-12-16,66.8,54.8,41.5,55.5,48.6,39.9,100,81,55,30.10,29.95,8,0,8,0.00
2014-12-17,62.9,52.0,43.8,45.5,42.7,39.1,89,72,49,30.16,30.06,6,0,6,0.00
2014-12-18,59.8,49.9,42.2,47.6,44.3,40.7,95,82,56,30.17,30.07,8,0,8,0.00
2014-12-19,58.1,50.6,42.6,50.2,45.8,41.0,97,84,68,30.17,30.08,7,0,7,0.00
2014-12-20,54.2,51.3,48.2,53.9,49.5,44.8,99,94,79,30.22,30.13,9,0,9,0.13
2014-12-21,50.4,47.7,44.9,47.4,44.6,42.8,96,89,76,30.23,30.07,10,0,10,0.21
2014-12-22,49.1,47.4,46.2,48.9,47.3,46.2,100,100,96,30.10,29.96,3,0,3,0.94
2014-12-23,55.9,51.8,47.6,55.9,51.8,47.6,100,100,100,30.02,29.89,2,0,2,0.12
2014-12-24,69.6,64.7,54.5,69.6,63.9,35.8,100,99,99,29.90,29.74,11,1,11,0.98
2014-12-25,64.0,54.0,43.2,64.0,46.6,41.0,100,77,52,30.26,29.78,13,1,13,0.01
2014-12-26,61.6,49.4,38.6,50.2,44.4,37.0,98,84,61,30.34,30.24,6,0,6,0.00
2014-12-27,64.2,53.1,44.1,51.4,47.6,43.0,98,83,61,30.35,30.20,6,0,6,0.00
2014-12-28,74.2,62.0,51.9,66.7,58.7,50.2,96,89,74,30.20,30.01,9,0,9,0.00
2014-12-29,67.4,62.0,58.0,63.8,61.0,58.0,100,97,86,30.09,30.00,6,0,6,0.21
2014-12-30,58.0,51.9,43.1,58.0,51.1,40.1,100,97,88,30.42,30.07,6,0,6,0.02
2014-12-31,53.5,44.7,39.6,39.9,37.6,34.4,90,77,52,30.48,30.35,6,0,7,0.00
2015-1-1,56.0,46.3,35.3,45.8,38.7,32.9,96,77,53,30.38,30.25,6,0,6,0.00
2015-1-2,61.5,55.6,51.1,53.2,48.1,43.1,89,77,53,30.33,30.26,5,0,5,0.02